COSMOS 1275 DEB

Satellite information

Favourite Embed

Satellite Type and Status

DEBRISIN ORBIT

Key statistics

Satellite COSMOS 1275 DEB at a glance.

Uptime

16264

Days in orbit

Revolutions

≈ 13.7

Per day

Orbit

LEO

Low Earth Orbit

Inclination

83.0

Latest

Satellite identification and parameters

Extended collection of information and parameters for COSMOS 1275 DEB.

Object identification

Identified? True

Debris? True

Object name: COSMOS 1275 DEB

International designator: 1981-053LH

Object number (NORAD): 17638

Object ID (CCSDS): 17638

Country: COMMONWEALTH OF INDEPENDENT STATES (CIS)

Current information (Y/N): Y

RCS size: SMALL

Orbital parameters

Period: 104.862 minutes

Inclination: 82.9909 deg

SMA: 7366.109 km

Apoapsis: 1064.029 km

Periapsis: 911.92 km

RAAN: 64.7351 deg

Eccentricy: 0.01032495

Argument of periapsis: 26.6939 deg

Mean anomaly: 100.554 deg

Mean motion: 13.73237059 rev/day

Mean motion (dot): 0.00001962 rev/day2

B* drag term: 0.0020224141 1/REarth

Two-line elements (TLE)

Creation date: Dec. 14, 2025, 3:07 a.m.

Reference frame: TEME

Reference center: EARTH

Epoch: Dec. 13, 2025, 5:04 p.m. UTC

TLE line 0: 0 COSMOS 1275 DEB

TLE line 1: 1 17638U 81053LH 25347.71127862 .00001962 00000-0 20224-2 0 9997

TLE line 2: 2 17638 82.9909 64.7351 0103250 26.6939 100.5540 13.73237059 19461

Live tracking on map

Real-time ground track for satellite COSMOS 1275 DEB.

In-orbit conjunctions

A list of the most updated potential collisions computed for object COSMOS 1275 DEB.

Target Orbit TCA Probability of collision Miss distance Type
SL-8 R/B LEO 2025-04-05 12:29:04 0.0001622453 607.0 (m) ROCKET BODY
CALSPHERE 1 SSO 2025-01-31 05:54:17 0.0001309519 998.0 (m) PAYLOAD

Associated space launch

Navigation satellite providing location information for the Tsiklon-B navigation system

COSMOS 1275 DEB was lifted into orbit during the mission ‘Kosmos-3M | Parus 27’, on board a Kosmos-3M space rocket.

The launch took place on June 4, 1981, 3:41 p.m. from 132/2.

For more information about the launch, click the button.

Launch to space Kosmos-3M | Parus 27
Kosmos-3M | Parus 27

Agency: N/A

Status: Launch Successful

Launch date: June 4, 1981, 3:41 p.m. UTC

Rocket: Kosmos-3M

Launch pad: 132/2

Location: Plesetsk Cosmodrome, Russian Federation

...

Latest news about this satellite

There are no fresh news available about this satellite. Check back as we update our databases every day.


Newsletter sign-up

Weekly statistics, charts and insights to help you stay on top of the space industry.